Location: Newark
(45.2500°N, 7.5833°E)
Time: 19:28:54
(UTC+00:00)

SR - Pass Details

Date: 03 February 2020
Orbit: 575 x 880 km, 66.7° (Epoch: 23 February)

Event Time Altitude Azimuth Distance (km) Brightness Sun altitude
Rises 18:16:07 0° 174° (S) 3,404 ? -17.3°
Reaches altitude 10° 18:18:55 10° 162° (SSE) 2,500 ? -17.8°
Enters shadow 18:22:56 25° 119° (ESE) 1,690 ? -18.5°
